Regional Weather Roundup
Issued by NWS

Home | Current Version | Previous Version | Text Only | Print | Product List | Glossary On
Versions: 1 2 3 4 5 6 7 8 9 10 11 12 13 14 15 16 17 18 19 20 21 22 23 24 25 26 27 28 29 30 31 32 33 34 35 36 37 38 39 40 41 42 43 44 45 46 47 48 49 50
000
ASUS44 KBMX 251110
RWRAL

ALABAMA REGIONAL WEATHER ROUNDUP
NATIONAL WEATHER SERVICE BIRMINGHAM AL
600 AM CDT MON SEP 25 2017

NOTE: "FAIR" INDICATES FEW OR NO CLOUDS BELOW 12,000 FEET
WITH NO SIGNIFICANT WEATHER AND/OR OBSTRUCTIONS TO VISIBILITY.

THE REMARK "TC" DENOTES TEMPERATURE IN DEGREES CELSIUS.

ALZ001>011-014-016>018-020-251200-
NORTH ALABAMA

CITY           SKY/WX    TMP DP  RH WIND       PRES   REMARKS
MUSCLE SHOALS  CLEAR     66  63  90 CALM      30.03R FOG
HUNTSVILLE     PTCLDY    68  67  96 E6        30.02R
DECATUR        CLEAR     65  65 100 CALM      30.03R
HALEYVILLE     FAIR      64  64 100 CALM      30.05R FOG
GADSDEN        CLEAR     63  63 100 CALM      30.03R
$$

ALZ012-013-022-023-030>036-040>044-251200-
WEST CENTRAL ALABAMA

CITY           SKY/WX    TMP DP  RH WIND       PRES   REMARKS
TUSCALOOSA     CLOUDY    71  69  93 CALM      29.98R
DEMOPOLIS        N/A     71  69  95 N3        29.96R
$$

ALZ015-024>026-033>036-041>044-251200-
CENTRAL ALABAMA

CITY           SKY/WX    TMP DP  RH WIND       PRES   REMARKS
BIRMINGHAM     CLEAR     70  64  81 NE3       30.02S
MONTGOMERY     CLOUDY    74  65  73 NE3       29.96S
SHELBY CO ARPT CLEAR     70  67  90 CALM      30.00R
MAXWELL AFB    CLOUDY    71  67  88 N3        29.96R
GREENVILLE     CLOUDY    73  65  75 E6        29.95R
SELMA          FAIR      72  66  83 NE5       29.96R
PRATTVILLE     FAIR      72  67  85 CALM      29.96S
BESSEMER       FAIR      71  66  84 NE5       30.01R
TALLADEGA      FAIR     N/A N/A N/A MISG      30.02R
PELL CITY      SUNNY     64  64 100 CALM      30.01S FOG
MARION         FAIR      69  67  92 CALM      29.96R
SYLACAUGA      FAIR      66  66 100 CALM      30.00S
$$

ALZ019-021-028-029-037-038-045>048-251200-
EAST CENTRAL ALABAMA

CITY           SKY/WX    TMP DP  RH WIND       PRES   REMARKS
ANNISTON       PTCLDY    66  63  90 NE3       30.02R
ALEXANDER CITY CLOUDY    65  64  97 CALM      30.00S
AUBURN         NOT AVBL
$$

ALZ051>064-251200-
SOUTHWEST ALABAMA

CITY           SKY/WX    TMP DP  RH WIND       PRES   REMARKS
MOBILE         CLOUDY    72  69  90 NE5       29.93R
BROOKLEY FIELD CLOUDY    75  72  90 NE8       29.93R
EVERGREEN      LGT RAIN  71  69  93 SW3       29.96R
$$

ALZ049-050-065>069-251200-
SOUTHEAST ALABAMA

CITY           SKY/WX    TMP DP  RH WIND       PRES   REMARKS
DOTHAN         CLOUDY    71  69  93 NE5       29.98R
OZARK          CLOUDY    71  67  87 NE3       29.94R
TROY           CLOUDY    70  68  93 CALM      29.97R
EUFAULA        FAIR      67  66  97 CALM      29.95S
$$



USA.gov is the U.S. government's official web portal to all federal, state and local government web resources and services.